Temperature
18 18 18 18 18 18 18 18 17 17 17 18 18 18 18 18 18 17 17 17 18 18 18 18 18 17 17 17 17 17 17 17 17 17 16 16 16 16 16 16 16 16 16
18 18 18 18 18 18 18 17 17 17 17 17 18 17 18 18 17 17 17 17 17 17 17 17 17 17 17 17 17 17 17 17 17 17 17 16 16 16 16 16 16 16 16
18 18 18 18 18 18 18 17 17 17 17 17 17 17 17 17 17 17 17 17 17 17 17 17 17 17 17 17 17 17 17 17 17 17 17 16 16 16 16 16 16 16 16
18 18 18 18 18 18 17 17 17 17 17 17 17 17 17 17 17 17 17 17 17 17 17 17 17 17 17 17 17 17 17 17 17 17 17 16 16 16 16 16 16 16 16
18 18 18 17 18 17 17 17 17 17 17 17 17 17 17 17 17 17 17 17 17 17 17 17 17 17 17 17 17 17 17 16 16 16 16 16 16 16 16 16 16 16 16
18 18 17 17 17 17 17 17 17 17 17 17 17 17 17 18 17 17 17 17 17 17 17 17 17 17 16 16 16 16 16 16 16 16 16 16 16 16 16 16 16 16 16
17 17 17 17 17 17 17 17 17 17 17 17 17 17 17 18 17 17 17 17 17 17 17 17 16 16 16 16 16 16 16 16 16 16 16 16 16 16 16 16 16 16 16
17 17 17 17 17 17 17 16 16 16 16 17 17 17 17 17 17 17 17 17 17 17 17 16 16 16 16 16 16 16 16 16 16 16 16 16 16 16 16 16 16 16 16
17 17 17 17 17 16 16 16 16 16 16 16 17 17 17 17 17 17 17 17 17 16 16 16 16 16 16 16 16 16 16 16 16 16 16 16 16 16 16 16 16 16 16
17 17 16 16 16 16 16 16 16 16 16 16 17 17 17 16 16 17 17 17 17 16 16 16 16 16 16 16 15 15 15 15 15 15 15 15 16 16 16 16 16 16 16
16 16 16 16 16 16 16 16 16 16 16 16 16 16 16 16 16 16 16 16 16 16 16 16 16 16 15 15 15 15 15 15 15 15 15 15 15 15 15 15 15 16 16
16 16 16 16 16 16 15 15 15 15 15 15 16 16 16 16 16 16 16 16 16 16 16 16 16 16 15 15 15 15 15 15 15 15 15 15 15 15 15 15 15 15 15
16 16 16 16 16 15 15 15 15 15 15 15 15 15 15 15 15 15 15 16 16 16 16 16 16 16 15 15 15 15 14 14 14 15 15 15 15 15 15 15 15 15 15
17 16 16 16 16 15 15 15 15 15 15 15 15 15 15 15 15 15 15 15 15 15 16 16 16 16 15 15 15 14 14 14 14 14 14 14 15 15 15 15 15 15 15
17 17 16 16 16 15 15 15 15 15 14 15 14 15 15 14 14 14 14 14 14 14 15 15 15 15 15 15 14 14 14 14 14 14 14 14 14 14 14 14 15 15 15
17 17 16 16 16 15 15 15 15 15 15 15 15 14 14 14 14 14 14 14 14 14 14 14 15 15 15 14 14 14 13 13 13 13 13 13 14 14 14 14 14 14 14
17 17 16 16 15 15 15 15 15 15 15 15 14 14 14 14 14 14 14 14 14 14 14 14 14 14 14 14 14 14 13 13 13 13 13 13 13 14 14 14 14 14 14
17 16 16 16 15 15 15 15 15 15 15 15 14 14 14 14 14 14 14 14 13 13 13 13 14 14 14 14 14 13 13 13 13 13 13 13 13 13 13 13 14 14 14
17 16 16 16 16 15 15 15 15 15 15 15 14 14 14 14 14 14 13 13 13 13 13 13 13 13 13 13 13 13 13 13 13 13 13 13 13 13 13 13 13 13 13
17 16 16 16 16 16 15 15 15 15 15 15 15 14 14 14 14 14 13 13 13 13 13 13 13 13 13 14 13 13 13 13 13 13 13 13 13 13 13 13 13 13 13
17 17 16 16 16 16 16 16 16 15 15 15 15 15 14 14 14 14 13 13 13 13 13 13 13 13 13 13 13 13 13 13 13 13 13 13 13 13 13 13 13 13 13
17 16 16 16 16 16 16 16 16 16 15 15 15 15 15 14 14 14 14 14 13 13 13 13 13 13 13 13 13 13 12 12 12 12 12 13 13 13 13 13 13 13 13
17 17 16 16 16 16 16 16 16 16 16 15 15 15 15 14 14 14 14 14 13 13 13 13 13 13 13 13 12 12 12 12 12 12 12 12 12 12 12 12 12 13 13
17 17 16 16 16 16 16 16 16 15 15 15 15 15 15 14 14 14 13 13 13 13 13 13 13 13 13 13 12 12 12 11 12 12 11 11 12 12 12 12 12 12 12
16 16 16 16 16 16 16 16 15 15 15 15 15 15 14 14 14 14 13 13 13 13 13 12 12 12 12 12 12 12 11 11 11 11 11 11 12 12 12 12 12 12 12
16 16 15 15 15 15 15 15 15 14 14 14 14 14 14 14 14 14 13 13 13 13 13 12 12 12 12 12 12 12 11 11 11 11 11 11 11 12 12 12 12 12 12
Wind_Speed
2 3 2 2 2 4 4 2 1 2 1 0 1 1 2 3 3 5 10 14 14 12 12 12 12 12 12 12 12 12 11 11 10 10 9 9 8 9 8 8 7 8 7
3 2 3 1 1 2 2 1 2 2 1 0 1 1 1 2 3 3 5 11 13 13 13 13 13 13 13 13 13 13 13 12 11 11 11 10 10 10 10 9 9 9 8
4 3 3 2 1 3 4 2 2 1 2 2 1 1 0 0 1 2 2 4 8 12 13 13 13 13 13 14 14 14 14 13 13 13 12 12 12 12 12 11 11 10 10
4 2 2 2 2 3 3 2 1 1 0 0 1 1 0 1 1 2 3 4 4 5 11 14 14 13 13 14 13 13 14 14 14 14 14 15 15 15 14 14 13 13 13
4 2 3 2 2 1 1 1 3 1 1 1 2 3 2 2 2 3 2 3 3 4 7 12 14 14 13 13 13 14 14 14 15 15 16 16 16 16 17 16 16 15 15
5 3 4 3 0 2 2 3 3 1 1 2 4 1 2 3 3 2 2 2 3 4 4 6 10 12 14 14 14 15 15 15 15 17 17 16 17 17 18 18 18 18 17
5 2 3 3 1 3 3 2 1 1 2 1 2 2 4 5 4 4 2 0 1 2 3 5 6 5 9 14 15 15 15 15 15 16 17 18 18 18 19 20 20 20 19
5 5 3 2 3 3 3 2 2 1 2 1 1 2 1 1 1 4 4 3 1 1 1 3 5 4 4 7 11 13 12 13 15 16 17 18 18 18 19 20 21 22 21
5 3 4 1 2 2 3 2 1 1 1 1 0 1 2 2 1 1 2 3 3 1 1 2 4 6 6 5 6 9 10 10 12 13 15 16 17 18 18 18 20 21 22
6 6 4 3 1 1 4 1 3 1 1 2 1 1 1 2 1 1 1 1 3 3 3 2 2 2 4 5 6 7 8 8 9 10 12 14 16 18 19 19 19 20 21
5 5 4 3 2 2 3 3 3 2 3 3 3 1 1 1 3 2 1 1 2 2 3 3 2 1 2 4 7 7 8 7 6 7 9 10 12 15 17 19 20 20 21
5 5 5 3 2 2 3 3 2 0 1 3 4 4 2 1 1 1 2 2 2 1 2 3 2 3 4 4 5 8 9 8 6 6 7 8 10 12 14 16 19 20 21
6 6 6 4 3 3 3 2 2 1 1 1 1 2 3 3 3 3 3 3 3 3 2 2 3 4 4 4 8 7 8 9 8 7 7 8 9 11 12 14 15 17 18
6 8 6 5 4 4 4 3 2 3 3 1 2 0 2 3 2 2 2 3 4 4 3 2 1 2 2 3 6 5 5 9 10 10 10 10 11 11 12 13 14 15 15
7 8 7 6 5 4 2 3 2 1 3 2 2 3 3 2 2 2 1 2 2 4 4 3 2 1 3 4 7 7 7 9 12 14 14 14 14 14 14 14 14 15 15
6 8 7 7 6 6 4 3 3 4 3 3 2 1 2 3 3 2 2 2 2 3 4 3 3 2 1 3 5 6 7 10 14 18 19 19 18 17 17 16 16 16 16
6 7 7 7 6 6 6 5 5 4 5 5 4 4 4 4 3 3 3 3 3 3 4 5 4 4 3 4 4 7 10 12 13 19 22 23 21 21 20 19 18 18 18
7 7 6 6 7 7 7 7 7 6 5 5 5 5 5 5 5 4 4 5 4 4 4 6 5 5 6 5 6 6 8 12 12 15 18 22 24 24 23 21 21 20 20
8 7 7 7 7 7 7 7 7 6 5 5 5 6 6 6 6 5 5 5 5 6 4 5 6 5 5 6 6 6 7 6 12 14 16 19 23 25 25 25 24 24 23
9 8 8 8 8 7 7 7 7 7 6 6 6 6 6 6 7 6 6 6 6 6 6 6 6 6 6 6 4 5 6 5 6 9 10 11 16 23 27 27 27 26 26
10 8 8 8 8 8 8 8 7 8 7 7 7 7 8 8 8 7 8 6 6 5 6 6 6 6 6 4 4 4 5 5 6 6 6 6 6 8 14 22 26 27 27
8 9 9 9 9 10 9 11 8 6 6 7 7 8 9 10 12 14 14 13 11 9 8 7 7 7 7 6 5 5 5 6 6 4 4 6 6 6 5 11 18 24 27
9 8 9 9 9 8 9 10 11 7 7 7 8 8 10 11 9 9 13 16 16 18 16 11 11 11 10 8 7 7 7 8 8 6 6 8 7 8 6 15 17 18 23
8 8 8 9 8 10 12 12 12 9 8 9 9 9 9 10 11 9 9 9 10 12 14 14 13 14 14 11 10 10 9 9 9 8 9 10 9 8 10 9 16 16 19
7 8 8 9 9 10 12 13 12 8 9 10 11 11 11 11 13 14 10 10 10 10 13 17 18 18 20 19 13 8 8 9 11 9 7 8 8 8 7 7 11 17 20
6 7 7 7 8 8 11 13 13 8 9 9 9 10 13 13 13 13 10 10 12 11 11 12 11 13 14 15 18 14 12 12 12 10 8 7 8 7 7 6 6 6 10
Wind_Direction
112 108 93 116 165 152 163 184 120 99 106 62 283 329 0 55 96 117 150 162 168 175 182 188 190 192 195 195 194 194 192 191 191 191 192 192 191 187 188 185 182 178 176
109 113 124 149 166 127 107 127 129 133 157 146 286 3 339 33 108 113 152 170 178 184 190 195 197 200 202 204 204 203 202 200 199 201 203 204 203 201 200 198 195 192 190
137 155 152 163 172 148 147 148 136 154 200 209 219 266 177 338 54 109 181 176 185 195 197 201 202 204 207 209 210 209 208 207 204 205 209 212 213 211 209 207 205 202 201
158 180 143 126 187 171 150 137 119 151 129 236 224 253 217 183 190 199 220 207 199 190 196 202 204 207 211 213 214 215 215 215 212 211 213 216 218 218 216 214 212 210 209
163 161 105 110 220 141 111 128 102 67 337 309 247 215 212 194 191 219 210 219 203 188 195 199 205 209 212 216 218 219 220 220 220 221 219 220 222 223 222 219 217 216 215
165 146 133 146 244 100 96 85 105 161 226 262 283 260 227 207 200 183 225 209 188 198 175 168 193 212 217 220 221 224 225 221 221 223 223 223 226 227 227 225 222 220 220
151 144 104 141 127 97 99 102 103 250 221 219 289 266 231 210 182 169 172 211 196 165 162 175 185 200 211 220 222 225 229 227 226 228 228 227 228 230 232 231 228 225 223
158 154 133 172 122 123 124 102 95 329 296 119 291 308 281 203 195 167 163 183 180 101 243 207 182 190 228 200 214 224 230 233 235 234 231 229 228 232 234 235 233 230 227
157 118 138 116 122 161 137 151 146 212 323 312 166 357 346 32 359 139 178 154 148 167 237 261 215 195 210 194 193 206 218 229 236 240 237 232 228 231 234 236 236 234 231
159 153 154 142 136 89 115 171 113 343 290 291 173 147 115 78 354 355 305 150 177 188 201 250 296 255 215 177 177 178 197 217 233 241 243 239 236 235 235 237 239 237 234
165 163 154 146 137 102 104 80 77 17 349 358 356 21 88 158 214 234 281 293 252 208 189 190 207 241 258 195 170 170 183 200 222 242 251 247 243 242 239 241 244 243 241
171 166 161 148 144 127 117 108 95 120 50 29 0 350 345 337 326 327 317 301 289 273 201 172 185 215 238 208 173 158 176 188 208 232 247 250 251 250 246 245 247 248 247
172 170 162 149 155 135 140 137 157 122 86 64 319 319 342 342 357 357 345 331 329 303 264 205 184 192 215 149 140 165 192 200 211 225 243 255 259 259 254 252 252 251 250
155 148 142 156 168 164 173 151 203 186 160 197 244 293 313 307 343 342 331 332 320 310 304 286 155 143 148 133 155 187 224 222 221 228 240 251 257 259 259 258 257 256 255
147 147 155 164 169 163 166 153 210 197 144 207 238 203 230 275 258 260 283 287 297 308 311 324 358 143 171 191 186 212 246 245 231 233 242 248 253 254 254 256 257 256 256
132 149 164 168 170 168 179 200 220 188 187 210 223 242 257 285 303 289 259 261 258 269 286 305 297 284 238 261 222 237 261 262 242 239 244 246 247 248 250 251 253 254 255
152 164 173 176 179 181 184 194 232 202 201 220 233 221 217 236 274 300 294 274 257 255 268 283 290 294 267 245 252 253 263 261 252 247 244 242 240 241 244 246 248 250 251
174 179 183 187 196 195 189 196 223 222 211 217 228 233 233 234 220 244 270 279 273 262 254 271 279 280 272 252 236 232 255 266 265 266 252 241 237 238 240 243 246 248 249
185 187 190 198 209 206 196 203 215 230 230 230 233 234 234 238 238 236 245 260 271 276 264 263 270 264 262 259 251 246 251 255 266 273 263 245 238 238 239 241 244 245 247
191 195 196 203 210 215 209 209 212 218 228 240 244 245 244 239 238 235 246 247 255 265 270 269 267 265 259 254 245 244 260 251 257 271 275 260 242 238 239 241 243 245 245
197 197 203 207 212 215 218 212 215 219 218 231 240 243 247 244 240 241 252 251 259 260 265 267 271 273 269 276 269 263 270 272 262 259 261 262 248 235 239 243 245 246 245
202 196 205 210 213 222 209 203 209 235 232 235 243 245 249 240 237 233 238 242 244 252 259 265 272 273 277 280 279 278 275 276 276 270 280 280 276 267 250 245 242 238 239
205 206 209 215 220 217 209 202 206 222 242 247 249 250 256 257 245 234 232 235 241 244 241 246 258 263 270 275 283 284 277 275 273 276 287 278 271 270 263 270 269 251 237
206 211 215 219 226 223 210 207 208 220 239 249 251 250 250 257 262 257 256 249 238 239 236 236 242 249 253 255 256 261 265 270 266 259 251 262 260 257 262 259 263 255 241
210 216 221 224 229 230 214 210 203 224 239 246 250 252 250 250 250 249 251 257 260 258 253 246 232 236 241 247 249 259 263 266 271 265 248 253 257 256 253 253 254 253 243
217 223 226 227 232 236 220 212 206 229 245 252 252 251 250 249 252 245 243 249 255 257 262 269 261 251 248 249 243 238 244 252 261 266 252 253 261 261 265 253 249 250 243
Height
1561 1562 1563 1564 1565 1566 1566 1567 1567 1568 1569 1570 1571 1572 1573 1574 1574 1575 1576 1577 1578 1579 1580 1581 1582 1583 1585 1586 1588 1589 1591 1592 1594 1595 1597 1598 1600 1601 1602 1603 1604 1605 1606
1560 1561 1562 1563 1564 1565 1566 1566 1567 1567 1568 1569 1570 1571 1572 1573 1574 1575 1576 1576 1577 1578 1579 1580 1581 1582 1584 1585 1586 1588 1589 1591 1592 1594 1596 1597 1599 1600 1601 1602 1603 1605 1606
1559 1560 1561 1562 1564 1565 1565 1566 1566 1567 1567 1568 1569 1570 1571 1572 1573 1573 1574 1575 1575 1576 1577 1578 1579 1580 1581 1583 1584 1586 1587 1589 1591 1592 1594 1596 1597 1599 1600 1601 1602 1604 1605
1558 1559 1561 1562 1563 1564 1565 1566 1566 1566 1567 1567 1568 1569 1570 1570 1571 1572 1573 1573 1574 1575 1575 1576 1577 1578 1579 1580 1582 1583 1584 1586 1588 1590 1592 1593 1595 1597 1598 1599 1601 1602 1603
1557 1559 1560 1561 1562 1563 1564 1565 1565 1565 1566 1566 1567 1567 1568 1569 1570 1571 1571 1572 1573 1573 1574 1574 1575 1576 1577 1578 1579 1580 1582 1583 1585 1587 1588 1590 1592 1594 1595 1597 1598 1600 1601
1556 1558 1559 1560 1561 1562 1563 1563 1564 1564 1565 1565 1566 1567 1567 1568 1568 1569 1570 1571 1571 1572 1572 1573 1573 1574 1574 1575 1576 1577 1578 1580 1581 1583 1585 1587 1589 1591 1592 1594 1596 1597 1598
1555 1557 1558 1559 1560 1561 1561 1562 1563 1564 1564 1565 1565 1566 1566 1566 1567 1567 1568 1569 1570 1571 1571 1571 1572 1572 1572 1572 1573 1574 1575 1576 1578 1580 1581 1583 1585 1587 1589 1591 1592 1594 1595
1554 1556 1557 1558 1559 1560 1560 1561 1562 1563 1564 1564 1565 1565 1565 1566 1566 1567 1567 1568 1569 1569 1570 1570 1570 1570 1570 1570 1571 1571 1572 1573 1574 1576 1577 1579 1581 1583 1585 1587 1588 1590 1591
1553 1554 1555 1557 1558 1559 1559 1560 1561 1562 1562 1563 1564 1564 1564 1565 1565 1566 1567 1567 1567 1568 1568 1568 1569 1569 1568 1568 1568 1569 1569 1570 1571 1572 1573 1575 1577 1579 1581 1582 1584 1585 1587
1552 1553 1554 1555 1556 1558 1558 1559 1559 1561 1561 1562 1563 1563 1564 1564 1565 1565 1566 1566 1566 1566 1567 1567 1567 1567 1567 1567 1566 1567 1567 1567 1568 1569 1570 1571 1572 1574 1575 1577 1579 1580 1582
1550 1552 1553 1553 1555 1556 1557 1557 1558 1559 1560 1561 1561 1562 1563 1563 1564 1565 1565 1565 1565 1565 1565 1565 1565 1565 1565 1565 1564 1564 1565 1565 1565 1566 1566 1567 1568 1569 1570 1571 1573 1574 1576
1549 1550 1551 1552 1553 1554 1555 1555 1556 1557 1558 1558 1559 1560 1562 1563 1563 1563 1563 1563 1564 1564 1563 1563 1563 1563 1563 1563 1563 1562 1562 1563 1563 1563 1563 1563 1564 1564 1565 1566 1567 1568 1570
1546 1548 1549 1550 1551 1552 1553 1554 1555 1556 1556 1556 1557 1558 1560 1560 1561 1561 1562 1562 1562 1562 1562 1561 1561 1561 1561 1561 1560 1560 1560 1559 1559 1559 1559 1559 1559 1560 1560 1561 1562 1563 1564
1545 1545 1547 1548 1549 1550 1552 1552 1554 1554 1554 1555 1556 1557 1558 1559 1559 1560 1560 1561 1560 1560 1560 1560 1559 1559 1559 1559 1558 1557 1557 1556 1555 1555 1555 1555 1555 1555 1555 1556 1557 1557 1558
1543 1543 1545 1546 1547 1548 1549 1551 1552 1553 1553 1553 1554 1555 1556 1557 1557 1558 1558 1559 1559 1558 1558 1558 1558 1557 1556 1556 1555 1554 1553 1552 1551 1551 1550 1550 1550 1550 1550 1550 1551 1551 1552
1540 1541 1542 1544 1545 1546 1547 1548 1550 1550 1551 1552 1552 1553 1554 1554 1555 1555 1556 1556 1556 1556 1555 1555 1555 1555 1554 1553 1552 1551 1549 1548 1547 1546 1546 1545 1545 1545 1545 1545 1545 1546 1546
1538 1539 1540 1542 1543 1544 1545 1546 1547 1549 1549 1550 1550 1551 1551 1551 1552 1552 1552 1553 1553 1553 1552 1551 1551 1551 1550 1549 1548 1547 1545 1544 1543 1542 1541 1541 1540 1540 1539 1539 1539 1539 1540
1534 1536 1538 1540 1541 1542 1543 1544 1545 1546 1547 1548 1548 1548 1548 1549 1549 1549 1549 1549 1549 1549 1548 1547 1547 1546 1546 1545 1544 1542 1541 1540 1539 1538 1537 1536 1535 1535 1534 1534 1533 1533 1533
1531 1533 1535 1537 1538 1540 1541 1541 1542 1543 1544 1545 1545 1545 1545 1546 1545 1545 1545 1545 1545 1545 1545 1543 1542 1542 1541 1540 1539 1538 1537 1535 1534 1533 1532 1531 1530 1530 1529 1528 1528 1527 1527
1528 1530 1532 1534 1535 1536 1537 1538 1539 1540 1540 1541 1542 1542 1542 1542 1542 1542 1541 1541 1541 1540 1540 1539 1538 1537 1536 1536 1535 1533 1532 1531 1529 1529 1527 1526 1525 1524 1523 1522 1522 1521 1521
1525 1527 1528 1530 1531 1533 1534 1535 1535 1536 1536 1537 1537 1537 1538 1538 1537 1537 1537 1537 1536 1535 1535 1534 1533 1532 1531 1531 1530 1528 1527 1525 1524 1523 1522 1521 1520 1518 1517 1516 1516 1515 1515
1522 1524 1525 1526 1527 1529 1530 1531 1532 1532 1532 1532 1533 1533 1533 1533 1532 1532 1532 1531 1531 1530 1529 1528 1527 1526 1525 1525 1524 1523 1521 1520 1517 1518 1516 1514 1514 1512 1511 1510 1510 1509 1508
1518 1519 1521 1522 1523 1524 1526 1527 1527 1528 1528 1527 1527 1527 1527 1527 1527 1526 1525 1525 1525 1524 1523 1523 1521 1519 1519 1519 1518 1516 1515 1513 1511 1510 1510 1506 1506 1505 1504 1504 1504 1503 1502
1513 1514 1516 1517 1518 1519 1520 1521 1522 1522 1522 1522 1521 1521 1521 1521 1521 1521 1520 1519 1518 1517 1516 1515 1514 1512 1512 1511 1511 1510 1508 1506 1503 1502 1503 1499 1498 1497 1497 1497 1496 1496 1495
1509 1510 1511 1512 1513 1514 1515 1515 1516 1516 1516 1516 1516 1515 1515 1515 1514 1514 1513 1512 1511 1510 1510 1509 1507 1505 1504 1504 1504 1503 1500 1499 1495 1494 1495 1494 1491 1490 1490 1489 1489 1488 1488
1504 1505 1506 1507 1507 1508 1509 1510 1510 1510 1510 1509 1510 1509 1509 1509 1508 1507 1506 1505 1503 1502 1502 1501 1500 1498 1497 1496 1495 1494 1492 1491 1488 1486 1486 1487 1485 1485 1482 1481 1481 1481 1480